Location: Chacón
(10.5789°N, 66.9317°W)
Time: 23:13:52
(UTC+00:00)

BREEZE-M DEB (TANK) - Pass Details

Date: 08 August 2024
Orbit: 331 x 16054 km, 49.4° (Epoch: 16 September)

Event Time Altitude Azimuth Distance (km) Brightness Sun altitude
Rises 22:39:45 0° 216° (SW) 21,167 10.6 1.4°
Reaches altitude 10° 23:13:11 10° 218° (SW) 20,324 10.5 -6.4°
Maximum altitude 00:57:22 57° 298° (WNW) 5,260 7.3 -30.3°
Drops below altitude 10° 01:11:46 10° 19° (NNE) 4,382 6.9 -33.5°
Sets 01:13:51 0° 25° (NNE) 4,793 7.1 -33.9°
